| time (UTC) | temp F | wind direction | speed MPH | gust MPH | rain 1hr in | rain 24hr in | rain mn in | humidity % | barometer mb |
| 20260506161559 | 72 | 274 | 5.0 | 11.0 | 0.00 | 0.00 | 0.00 | 46 | 1004.7 |
| 20260506161059 | 72 | 295 | 8.0 | 15.0 | 0.00 | 0.00 | 0.00 | 46 | 1004.6 |
| 20260506160559 | 73 | 246 | 10.0 | 13.0 | 0.00 | 0.00 | 0.00 | 45 | 1004.7 |
| 20260506160059 | 73 | 268 | 11.0 | 15.0 | 0.00 | 0.00 | 0.00 | 43 | 1004.6 |
| 20260506155559 | 73 | 234 | 4.0 | 11.0 | 0.00 | 0.00 | 0.00 | 43 | 1004.4 |
| 20260506155059 | 73 | 251 | 9.0 | 11.0 | 0.00 | 0.00 | 0.00 | 43 | 1004.5 |
| 20260506154559 | 73 | 253 | 6.0 | 15.0 | 0.00 | 0.00 | 0.00 | 43 | 1004.6 |
| 20260506154059 | 73 | 230 | 4.0 | 9.0 | 0.00 | 0.00 | 0.00 | 43 | 1004.6 |
| 20260506153559 | 73 | 237 | 11.0 | 15.0 | 0.00 | 0.00 | 0.00 | 41 | 1004.7 |
| 20260506153059 | 73 | 244 | 8.0 | 13.0 | 0.00 | 0.00 | 0.00 | 41 | 1004.5 |
| 20260506152559 | 75 | 209 | 10.0 | 15.0 | 0.00 | 0.00 | 0.00 | 42 | 1004.5 |
| 20260506152059 | 75 | 189 | 12.0 | 15.0 | 0.00 | 0.00 | 0.00 | 40 | 1004.4 |
| 20260506151559 | 75 | 180 | 9.0 | 11.0 | 0.00 | 0.00 | 0.00 | 39 | 1004.3 |
| 20260506151059 | 75 | 294 | 4.0 | 11.0 | 0.00 | 0.00 | 0.00 | 38 | 1004.5 |
| 20260506150559 | 75 | 244 | 9.0 | 17.0 | 0.00 | 0.00 | 0.00 | 41 | 1004.5 |
| 20260506150059 | 75 | 250 | 11.0 | 20.0 | 0.00 | 0.00 | 0.00 | 39 | 1004.4 |
| 20260506145559 | 75 | 232 | 6.0 | 9.0 | 0.00 | 0.00 | 0.00 | 39 | 1004.4 |
| 20260506145059 | 75 | 179 | 6.0 | 11.0 | 0.00 | 0.00 | 0.00 | 43 | 1004.6 |
| 20260506144559 | 75 | 233 | 3.0 | 11.0 | 0.00 | 0.00 | 0.00 | 43 | 1004.8 |
| 20260506144059 | 75 | 239 | 8.0 | 11.0 | 0.00 | 0.00 | 0.00 | 41 | 1004.9 |
| 20260506143559 | 75 | 260 | 10.0 | 15.0 | 0.00 | 0.00 | 0.00 | 40 | 1005.0 |
| 20260506143059 | 75 | 257 | 15.0 | 20.0 | 0.00 | 0.00 | 0.00 | 40 | 1004.9 |
| 20260506142559 | 75 | 243 | 22.0 | 30.0 | 0.00 | 0.00 | 0.00 | 40 | 1004.9 |
| 20260506142059 | 75 | 204 | 11.0 | 20.0 | 0.00 | 0.00 | 0.00 | 39 | 1004.9 |
| 20260506141559 | 75 | 240 | 14.0 | 24.0 | 0.00 | 0.00 | 0.00 | 40 | 1004.9 |
| 20260506141059 | 75 | 242 | 14.0 | 26.0 | 0.00 | 0.00 | 0.00 | 38 | 1004.9 |
| 20260506140559 | 75 | 218 | 8.0 | 22.0 | 0.00 | 0.00 | 0.00 | 40 | 1004.9 |
| 20260506140059 | 75 | 246 | 21.0 | 26.0 | 0.00 | 0.00 | 0.00 | 38 | 1004.9 |
| 20260506135559 | 75 | 218 | 5.0 | 17.0 | 0.00 | 0.00 | 0.00 | 41 | 1004.8 |
| 20260506135059 | 75 | 243 | 12.0 | 17.0 | 0.00 | 0.00 | 0.00 | 40 | 1004.7 |
| 20260506134559 | 75 | 229 | 12.0 | 18.0 | 0.00 | 0.00 | 0.00 | 41 | 1004.9 |
| 20260506134059 | 75 | 209 | 8.0 | 18.0 | 0.00 | 0.00 | 0.00 | 43 | 1004.9 |
| 20260506133559 | 73 | 194 | 11.0 | 17.0 | 0.00 | 0.00 | 0.00 | 44 | 1005.1 |
| 20260506133059 | 75 | 273 | 14.0 | 17.0 | 0.00 | 0.00 | 0.00 | 42 | 1005.0 |
| 20260506132559 | 75 | 252 | 11.0 | 18.0 | 0.00 | 0.00 | 0.00 | 42 | 1004.7 |
| 20260506132059 | 75 | 252 | 17.0 | 20.0 | 0.00 | 0.00 | 0.00 | 42 | 1005.1 |
| 20260506131559 | 75 | 206 | 6.0 | 13.0 | 0.00 | 0.00 | 0.00 | 42 | 1005.1 |
| 20260506131059 | 73 | 246 | 15.0 | 26.0 | 0.00 | 0.00 | 0.00 | 44 | 1005.3 |
| 20260506130559 | 73 | 268 | 6.0 | 17.0 | 0.00 | 0.00 | 0.00 | 44 | 1005.4 |
| 20260506130059 | 73 | 265 | 11.0 | 22.0 | 0.00 | 0.00 | 0.00 | 44 | 1005.4 |
| 20260506125559 | 73 | 184 | 9.0 | 18.0 | 0.00 | 0.00 | 0.00 | 43 | 1005.6 |
| 20260506125059 | 75 | 245 | 12.0 | 20.0 | 0.00 | 0.00 | 0.00 | 42 | 1005.2 |
| 20260506124559 | 73 | 252 | 10.0 | 18.0 | 0.00 | 0.00 | 0.00 | 43 | 1005.4 |
| 20260506124059 | 73 | 248 | 16.0 | 30.0 | 0.00 | 0.00 | 0.00 | 43 | 1005.5 |
| 20260506123559 | 73 | 273 | 11.0 | 28.0 | 0.00 | 0.00 | 0.00 | 44 | 1005.3 |
| 20260506123059 | 73 | 170 | 12.0 | 28.0 | 0.00 | 0.00 | 0.00 | 44 | 1005.5 |
| 20260506122559 | 73 | 202 | 16.0 | 22.0 | 0.00 | 0.00 | 0.00 | 44 | 1005.3 |
| 20260506122059 | 73 | 230 | 13.0 | 17.0 | 0.00 | 0.00 | 0.00 | 43 | 1005.3 |
| 20260506121559 | 73 | 242 | 13.0 | 22.0 | 0.00 | 0.00 | 0.00 | 43 | 1005.5 |
| 20260506121059 | 73 | 224 | 11.0 | 28.0 | 0.00 | 0.00 | 0.00 | 42 | 1005.5 |
| 20260506120559 | 73 | 180 | 19.0 | 33.0 | 0.00 | 0.00 | 0.00 | 43 | 1005.3 |
| 20260506120059 | 73 | 208 | 23.0 | 30.0 | 0.00 | 0.00 | 0.00 | 43 | 1005.3 |
| 20260506115559 | 73 | 211 | 26.0 | 31.0 | 0.00 | 0.00 | 0.00 | 43 | 1005.5 |
| 20260506115059 | 73 | 252 | 16.0 | 28.0 | 0.00 | 0.00 | 0.00 | 44 | 1005.5 |
| 20260506114559 | 73 | 240 | 11.0 | 17.0 | 0.00 | 0.00 | 0.00 | 45 | 1005.4 |
| 20260506114059 | 72 | 223 | 14.0 | 26.0 | 0.00 | 0.00 | 0.00 | 43 | 1005.4 |
| 20260506113559 | 72 | 217 | 19.0 | 24.0 | 0.00 | 0.00 | 0.00 | 46 | 1005.5 |
| 20260506113100 | 72 | 225 | 15.0 | 30.0 | 0.00 | 0.00 | 0.00 | 46 | 1005.6 |
| 20260506112559 | 72 | 234 | 12.0 | 22.0 | 0.00 | 0.00 | 0.00 | 45 | 1005.8 |
| 20260506112059 | 72 | 205 | 5.0 | 17.0 | 0.00 | 0.00 | 0.00 | 48 | 1005.7 |
| 20260506111559 | 72 | 221 | 10.0 | 17.0 | 0.00 | 0.00 | 0.00 | 48 | 1005.7 |
| 20260506111059 | 73 | 250 | 9.0 | 24.0 | 0.00 | 0.00 | 0.00 | 46 | 1005.8 |
| 20260506110559 | 72 | 251 | 9.0 | 24.0 | 0.00 | 0.00 | 0.00 | 47 | 1005.7 |
| 20260506110059 | 72 | 270 | 8.0 | 15.0 | 0.00 | 0.00 | 0.00 | 50 | 1005.7 |
| 20260506105559 | 72 | 181 | 12.0 | 18.0 | 0.00 | 0.00 | 0.00 | 49 | 1005.8 |
| 20260506105059 | 72 | 183 | 9.0 | 30.0 | 0.00 | 0.00 | 0.00 | 50 | 1005.8 |
| 20260506104559 | 72 | 252 | 15.0 | 30.0 | 0.00 | 0.00 | 0.00 | 50 | 1006.2 |
| 20260506104059 | 70 | 244 | 9.0 | 24.0 | 0.00 | 0.00 | 0.00 | 50 | 1006.1 |
| 20260506103559 | 70 | 247 | 21.0 | 26.0 | 0.00 | 0.00 | 0.00 | 49 | 1006.0 |
| 20260506103059 | 72 | 209 | 11.0 | 22.0 | 0.00 | 0.00 | 0.00 | 48 | 1005.9 |
| 20260506102559 | 72 | 243 | 9.0 | 18.0 | 0.00 | 0.00 | 0.00 | 49 | 1005.9 |
| 20260506102059 | 72 | 185 | 15.0 | 31.0 | 0.00 | 0.00 | 0.00 | 48 | 1005.7 |
| 20260506101559 | 72 | 224 | 9.0 | 22.0 | 0.00 | 0.00 | 0.00 | 49 | 1005.8 |
| 20260506101059 | 72 | 204 | 15.0 | 18.0 | 0.00 | 0.00 | 0.00 | 48 | 1005.6 |
| 20260506100559 | 72 | 238 | 16.0 | 24.0 | 0.00 | 0.00 | 0.00 | 49 | 1005.6 |
| 20260506100059 | 70 | 191 | 11.0 | 24.0 | 0.00 | 0.00 | 0.00 | 51 | 1005.7 |
| 20260506095559 | 72 | 209 | 11.0 | 30.0 | 0.00 | 0.00 | 0.00 | 49 | 1005.8 |
| 20260506095059 | 70 | 242 | 13.0 | 24.0 | 0.00 | 0.00 | 0.00 | 51 | 1005.6 |
| 20260506094559 | 72 | 202 | 9.0 | 18.0 | 0.00 | 0.00 | 0.00 | 50 | 1005.7 |
| 20260506094059 | 70 | 227 | 14.0 | 18.0 | 0.00 | 0.00 | 0.00 | 52 | 1005.7 |
| 20260506093559 | 70 | 206 | 19.0 | 22.0 | 0.00 | 0.00 | 0.00 | 51 | 1005.7 |
| 20260506093059 | 70 | 209 | 12.0 | 20.0 | 0.00 | 0.00 | 0.00 | 53 | 1005.7 |
| 20260506092559 | 70 | 238 | 14.0 | 26.0 | 0.00 | 0.00 | 0.00 | 53 | 1005.8 |
| 20260506092059 | 68 | 188 | 12.0 | 18.0 | 0.00 | 0.00 | 0.00 | 54 | 1005.9 |
| 20260506091558 | 68 | 284 | 12.0 | 30.0 | 0.00 | 0.00 | 0.00 | 53 | 1005.8 |
| 20260506091059 | 68 | 216 | 25.0 | 30.0 | 0.00 | 0.00 | 0.00 | 53 | 1005.8 |
| 20260506090559 | 68 | 216 | 16.0 | 26.0 | 0.00 | 0.00 | 0.00 | 55 | 1005.9 |
| 20260506090059 | 68 | 275 | 12.0 | 22.0 | 0.00 | 0.00 | 0.00 | 54 | 1005.7 |
| 20260506085559 | 68 | 216 | 17.0 | 24.0 | 0.00 | 0.00 | 0.00 | 55 | 1005.7 |
| 20260506085058 | 68 | 256 | 12.0 | 30.0 | 0.00 | 0.00 | 0.00 | 55 | 1005.7 |
| 20260506084558 | 68 | 269 | 8.0 | 13.0 | 0.00 | 0.00 | 0.00 | 57 | 1005.8 |
| 20260506084059 | 68 | 253 | 17.0 | 22.0 | 0.00 | 0.00 | 0.00 | 55 | 1005.7 |
| 20260506083558 | 66 | 202 | 20.0 | 28.0 | 0.00 | 0.00 | 0.00 | 56 | 1005.7 |
| 20260506083058 | 66 | 190 | 15.0 | 18.0 | 0.00 | 0.00 | 0.00 | 57 | 1005.9 |
| 20260506082558 | 66 | 196 | 15.0 | 24.0 | 0.00 | 0.00 | 0.00 | 56 | 1005.6 |
| 20260506082058 | 66 | 260 | 9.0 | 22.0 | 0.00 | 0.00 | 0.00 | 57 | 1005.9 |
| 20260506081558 | 66 | 257 | 12.0 | 18.0 | 0.00 | 0.00 | 0.00 | 58 | 1006.1 |
| 20260506081058 | 64 | 270 | 19.0 | 30.0 | 0.00 | 0.00 | 0.00 | 58 | 1006.0 |
| 20260506080558 | 64 | 224 | 13.0 | 24.0 | 0.00 | 0.00 | 0.00 | 58 | 1005.9 |
| 20260506073058 | 64 | 250 | 15.0 | 26.0 | 0.00 | 0.00 | 0.00 | 59 | 1005.7 |
| 20260506072558 | 64 | 171 | 13.0 | 24.0 | 0.00 | 0.00 | 0.00 | 59 | 1005.7 |
| 20260506072058 | 64 | 255 | 17.0 | 30.0 | 0.00 | 0.00 | 0.00 | 59 | 1005.7 |
| 20260506071558 | 64 | 230 | 19.0 | 24.0 | 0.00 | 0.00 | 0.00 | 60 | 1005.7 |
| 20260506071058 | 64 | 255 | 16.0 | 28.0 | 0.00 | 0.00 | 0.00 | 60 | 1005.6 |
| 20260506070558 | 64 | 135 | 19.0 | 24.0 | 0.00 | 0.00 | 0.00 | 60 | 1005.8 |
| 20260506062059 | 63 | 222 | 9.0 | 20.0 | 0.00 | 0.00 | 0.00 | 61 | 1005.6 |
| 20260506061558 | 63 | 224 | 10.0 | 15.0 | 0.00 | 0.00 | 0.00 | 61 | 1005.6 |
| 20260506061058 | 63 | 207 | 13.0 | 22.0 | 0.00 | 0.00 | 0.00 | 61 | 1005.5 |
| 20260506060559 | 63 | 221 | 9.0 | 18.0 | 0.00 | 0.00 | 0.00 | 61 | 1005.5 |
| 20260506051058 | 61 | 192 | 14.0 | 15.0 | 0.00 | 0.00 | 0.00 | 63 | 1005.8 |
| 20260506050559 | 61 | 220 | 14.0 | 18.0 | 0.00 | 0.00 | 0.00 | 63 | 1005.7 |
| 20260506045058 | 59 | 229 | 10.0 | 20.0 | 0.00 | 0.00 | 0.00 | 64 | 1005.8 |
| 20260506044558 | 61 | 238 | 10.0 | 17.0 | 0.00 | 0.00 | 0.00 | 63 | 1005.7 |
| 20260506044058 | 61 | 181 | 14.0 | 17.0 | 0.00 | 0.00 | 0.00 | 62 | 1005.7 |
| 20260506043558 | 61 | 211 | 14.0 | 17.0 | 0.00 | 0.00 | 0.00 | 62 | 1005.7 |
| 20260506043058 | 59 | 233 | 8.0 | 11.0 | 0.00 | 0.00 | 0.00 | 62 | 1005.8 |
| 20260506042558 | 59 | 190 | 6.0 | 13.0 | 0.00 | 0.00 | 0.00 | 63 | 1005.8 |
| 20260506042058 | 59 | 225 | 2.0 | 11.0 | 0.00 | 0.00 | 0.00 | 64 | 1005.7 |
| 20260506041558 | 59 | 239 | 6.0 | 7.0 | 0.00 | 0.00 | 0.00 | 64 | 1005.8 |
| 20260506041058 | 59 | 218 | 7.0 | 13.0 | 0.00 | 0.00 | 0.00 | 64 | 1005.8 |
| 20260506040558 | 57 | 218 | 6.0 | 15.0 | 0.00 | 0.00 | 0.00 | 65 | 1005.8 |
| 20260506040058 | 57 | 199 | 6.0 | 11.0 | 0.00 | 0.00 | 0.00 | 65 | 1005.9 |
| 20260506035558 | 57 | 229 | 2.0 | 9.0 | 0.00 | 0.00 | 0.00 | 65 | 1005.7 |
| 20260506035058 | 57 | 283 | 5.0 | 9.0 | 0.00 | 0.00 | 0.00 | 64 | 1005.6 |
| 20260506034558 | 57 | 210 | 4.0 | 9.0 | 0.00 | 0.00 | 0.00 | 64 | 1005.8 |
| 20260506034058 | 57 | 228 | 5.0 | 11.0 | 0.00 | 0.00 | 0.00 | 65 | 1005.6 |
| 20260506033558 | 57 | 229 | 6.0 | 11.0 | 0.00 | 0.00 | 0.00 | 65 | 1005.6 |
| 20260506033058 | 57 | 211 | 8.0 | 13.0 | 0.00 | 0.00 | 0.00 | 65 | 1005.8 |
| 20260506032558 | 55 | 225 | 5.0 | 9.0 | 0.00 | 0.00 | 0.00 | 65 | 1005.8 |
| 20260506032058 | 57 | 205 | 7.0 | 9.0 | 0.00 | 0.00 | 0.00 | 64 | 1005.8 |
| 20260506031558 | 57 | 203 | 5.0 | 7.0 | 0.00 | 0.00 | 0.00 | 65 | 1005.8 |
| 20260506031058 | 57 | 215 | 5.0 | 11.0 | 0.00 | 0.00 | 0.00 | 64 | 1005.9 |
| 20260506030558 | 57 | 194 | 8.0 | 11.0 | 0.00 | 0.00 | 0.00 | 63 | 1005.7 |
| 20260506030058 | 55 | 215 | 2.0 | 4.0 | 0.00 | 0.00 | 0.00 | 62 | 1005.6 |
| 20260506025558 | 57 | 215 | 0.0 | 0.0 | 0.00 | 0.00 | 0.00 | 61 | 1005.7 |
| 20260506025058 | 57 | 222 | 1.0 | 4.0 | 0.00 | 0.00 | 0.00 | 60 | 1005.8 |
| 20260506024558 | 57 | 222 | 0.0 | 4.0 | 0.00 | 0.00 | 0.00 | 59 | 1005.6 |
| 20260506024058 | 57 | 252 | 0.0 | 0.0 | 0.00 | 0.00 | 0.00 | 58 | 1005.6 |
| 20260506023558 | 57 | 253 | 2.0 | 5.0 | 0.00 | 0.00 | 0.00 | 57 | 1005.7 |
| 20260506023058 | 57 | 221 | 3.0 | 4.0 | 0.00 | 0.00 | 0.00 | 58 | 1005.7 |
| 20260506022558 | 57 | 129 | 0.0 | 0.0 | 0.00 | 0.00 | 0.00 | 57 | 1005.6 |
| 20260506022058 | 57 | 129 | 0.0 | 0.0 | 0.00 | 0.00 | 0.00 | 57 | 1005.4 |
| 20260506021558 | 57 | 129 | 0.0 | 0.0 | 0.00 | 0.00 | 0.00 | 57 | 1005.7 |
| 20260506021058 | 57 | 129 | 0.0 | 0.0 | 0.00 | 0.00 | 0.00 | 58 | 1005.7 |
| 20260506020558 | 57 | 129 | 0.0 | 0.0 | 0.00 | 0.00 | 0.00 | 58 | 1005.8 |
| 20260506020058 | 57 | 129 | 0.0 | 0.0 | 0.00 | 0.00 | 0.00 | 58 | 1005.8 |
| 20260506015558 | 57 | 129 | 0.0 | 0.0 | 0.00 | 0.00 | 0.00 | 57 | 1005.6 |
| 20260506015059 | 57 | 129 | 1.0 | 2.0 | 0.00 | 0.00 | 0.00 | 57 | 1005.6 |
| 20260506014558 | 57 | 129 | 0.0 | 0.0 | 0.00 | 0.00 | 0.00 | 57 | 1005.8 |
| 20260506014058 | 57 | 129 | 0.0 | 0.0 | 0.00 | 0.00 | 0.00 | 58 | 1005.7 |
| 20260506013558 | 57 | 129 | 0.0 | 0.0 | 0.00 | 0.00 | 0.00 | 58 | 1005.9 |
| 20260506013058 | 57 | 129 | 0.0 | 0.0 | 0.00 | 0.00 | 0.00 | 57 | 1005.9 |
| 20260506012558 | 57 | 129 | 0.0 | 0.0 | 0.00 | 0.00 | 0.00 | 57 | 1006.0 |
| 20260506012058 | 57 | 129 | 0.0 | 0.0 | 0.00 | 0.00 | 0.00 | 56 | 1005.8 |
| 20260506011558 | 57 | 129 | 0.0 | 0.0 | 0.00 | 0.00 | 0.00 | 55 | 1005.7 |
| 20260506011058 | 57 | 129 | 0.0 | 0.0 | 0.00 | 0.00 | 0.00 | 54 | 1005.7 |
| 20260506010558 | 57 | 129 | 0.0 | 0.0 | 0.00 | 0.00 | 0.00 | 54 | 1005.9 |
| 20260506010058 | 57 | 129 | 0.0 | 0.0 | 0.00 | 0.00 | 0.00 | 54 | 1005.9 |
| 20260506005558 | 59 | 129 | 0.0 | 0.0 | 0.00 | 0.00 | 0.00 | 53 | 1005.8 |
| 20260506005058 | 59 | 129 | 0.0 | 0.0 | 0.00 | 0.00 | 0.00 | 53 | 1005.7 |
| 20260506004558 | 59 | 129 | 0.0 | 2.0 | 0.00 | 0.00 | 0.00 | 53 | 1005.8 |
| 20260506004058 | 59 | 129 | 0.0 | 0.0 | 0.00 | 0.00 | 0.00 | 53 | 1006.0 |
| 20260506003558 | 59 | 129 | 0.0 | 2.0 | 0.00 | 0.00 | 0.00 | 53 | 1005.8 |
| 20260506003058 | 59 | 129 | 4.0 | 4.0 | 0.00 | 0.00 | 0.00 | 54 | 1005.6 |
| 20260506002558 | 59 | 129 | 2.0 | 4.0 | 0.00 | 0.00 | 0.00 | 53 | 1005.8 |
| 20260506002058 | 59 | 129 | 2.0 | 2.0 | 0.00 | 0.00 | 0.00 | 53 | 1005.7 |
| 20260506001558 | 59 | 129 | 2.0 | 2.0 | 0.00 | 0.00 | 0.00 | 54 | 1005.9 |
| 20260506001058 | 59 | 129 | 2.0 | 2.0 | 0.00 | 0.00 | 0.00 | 53 | 1005.8 |
| 20260506000558 | 59 | 129 | 1.0 | 4.0 | 0.00 | 0.00 | 0.00 | 53 | 1005.7 |
| 20260506000058 | 59 | 129 | 0.0 | 2.0 | 0.00 | 0.00 | 0.00 | 54 | 1005.8 |
| 20260505235558 | 59 | 129 | 0.0 | 2.0 | 0.00 | 0.00 | 0.00 | 54 | 1006.0 |
| 20260505235058 | 61 | 129 | 2.0 | 4.0 | 0.00 | 0.00 | 0.00 | 53 | 1006.0 |
| 20260505234558 | 61 | 129 | 3.0 | 4.0 | 0.00 | 0.00 | 0.00 | 53 | 1005.9 |
| 20260505234058 | 61 | 129 | 4.0 | 4.0 | 0.00 | 0.00 | 0.00 | 52 | 1005.8 |
| 20260505233558 | 61 | 129 | 3.0 | 4.0 | 0.00 | 0.00 | 0.00 | 52 | 1005.9 |
| 20260505233058 | 61 | 129 | 2.0 | 4.0 | 0.00 | 0.00 | 0.00 | 52 | 1006.0 |
| 20260505232558 | 61 | 129 | 3.0 | 4.0 | 0.00 | 0.00 | 0.00 | 51 | 1006.0 |
| 20260505232058 | 61 | 129 | 0.0 | 2.0 | 0.00 | 0.00 | 0.00 | 51 | 1006.0 |
| 20260505231558 | 61 | 129 | 2.0 | 4.0 | 0.00 | 0.00 | 0.00 | 52 | 1006.2 |
| 20260505231058 | 61 | 129 | 2.0 | 5.0 | 0.00 | 0.00 | 0.00 | 51 | 1006.1 |
| 20260505230558 | 61 | 129 | 4.0 | 4.0 | 0.00 | 0.00 | 0.00 | 51 | 1006.1 |
| 20260505230058 | 61 | 171 | 4.0 | 4.0 | 0.00 | 0.00 | 0.00 | 50 | 1006.2 |
| 20260505225558 | 61 | 171 | 2.0 | 4.0 | 0.00 | 0.00 | 0.00 | 51 | 1006.4 |
| 20260505225058 | 61 | 171 | 2.0 | 4.0 | 0.00 | 0.00 | 0.00 | 51 | 1006.3 |
| 20260505224558 | 61 | 171 | 3.0 | 4.0 | 0.00 | 0.00 | 0.00 | 51 | 1006.4 |
| 20260505224058 | 61 | 172 | 2.0 | 4.0 | 0.00 | 0.00 | 0.00 | 51 | 1006.3 |
| 20260505223558 | 59 | 172 | 2.0 | 2.0 | 0.00 | 0.00 | 0.00 | 52 | 1006.4 |
| 20260505223058 | 61 | 172 | 2.0 | 4.0 | 0.00 | 0.00 | 0.00 | 51 | 1006.4 |
| 20260505222558 | 61 | 172 | 2.0 | 4.0 | 0.00 | 0.00 | 0.00 | 51 | 1006.4 |
| 20260505222058 | 61 | 172 | 0.0 | 2.0 | 0.00 | 0.00 | 0.00 | 51 | 1006.6 |
| 20260505221558 | 61 | 172 | 2.0 | 2.0 | 0.00 | 0.00 | 0.00 | 50 | 1006.6 |
| 20260505221058 | 61 | 211 | 0.0 | 2.0 | 0.00 | 0.00 | 0.00 | 49 | 1006.4 |
| 20260505220558 | 61 | 204 | 1.0 | 4.0 | 0.00 | 0.00 | 0.00 | 49 | 1006.5 |
| 20260505220058 | 61 | 216 | 1.0 | 5.0 | 0.00 | 0.00 | 0.00 | 48 | 1006.5 |
| 20260505215558 | 63 | 221 | 2.0 | 4.0 | 0.00 | 0.00 | 0.00 | 47 | 1006.6 |
| 20260505215058 | 63 | 225 | 3.0 | 5.0 | 0.00 | 0.00 | 0.00 | 46 | 1006.6 |
| 20260505214558 | 63 | 215 | 2.0 | 4.0 | 0.00 | 0.00 | 0.00 | 45 | 1006.6 |
| 20260505214058 | 63 | 175 | 4.0 | 5.0 | 0.00 | 0.00 | 0.00 | 45 | 1006.7 |
| 20260505213558 | 63 | 149 | 4.0 | 4.0 | 0.00 | 0.00 | 0.00 | 45 | 1006.4 |
| 20260505212558 | 63 | 169 | 2.0 | 4.0 | 0.00 | 0.00 | 0.00 | 44 | 1006.4 |
| 20260505212058 | 63 | 142 | 0.0 | 4.0 | 0.00 | 0.00 | 0.00 | 44 | 1006.7 |
| 20260505211558 | 63 | 143 | 0.0 | 2.0 | 0.00 | 0.00 | 0.00 | 43 | 1006.7 |
| 20260505211058 | 63 | 142 | 3.0 | 4.0 | 0.00 | 0.00 | 0.00 | 43 | 1006.4 |
| 20260505210558 | 63 | 142 | 1.0 | 2.0 | 0.00 | 0.00 | 0.00 | 42 | 1006.5 |
| 20260505210058 | 63 | 142 | 0.0 | 4.0 | 0.00 | 0.00 | 0.00 | 42 | 1006.6 |
| 20260505205558 | 63 | 142 | 1.0 | 2.0 | 0.00 | 0.00 | 0.00 | 42 | 1006.6 |
| 20260505205058 | 63 | 142 | 1.0 | 2.0 | 0.00 | 0.00 | 0.00 | 42 | 1006.9 |
| 20260505204558 | 63 | 142 | 2.0 | 2.0 | 0.00 | 0.00 | 0.00 | 42 | 1006.6 |
| 20260505204058 | 63 | 142 | 1.0 | 2.0 | 0.00 | 0.00 | 0.00 | 41 | 1006.6 |
| 20260505203558 | 63 | 143 | 1.0 | 2.0 | 0.00 | 0.00 | 0.00 | 41 | 1006.6 |
| 20260505203058 | 64 | 143 | 0.0 | 2.0 | 0.00 | 0.00 | 0.00 | 40 | 1006.5 |
| 20260505202558 | 64 | 143 | 1.0 | 2.0 | 0.00 | 0.00 | 0.00 | 39 | 1006.4 |
| 20260505202058 | 64 | 143 | 0.0 | 0.0 | 0.00 | 0.00 | 0.00 | 39 | 1006.5 |
| 20260505201558 | 64 | 142 | 0.0 | 2.0 | 0.00 | 0.00 | 0.00 | 39 | 1006.5 |
| 20260505201058 | 64 | 161 | 3.0 | 4.0 | 0.00 | 0.00 | 0.00 | 39 | 1006.6 |
| 20260505200558 | 64 | 163 | 0.0 | 0.0 | 0.00 | 0.00 | 0.00 | 39 | 1006.5 |
| 20260505200058 | 64 | 163 | 0.0 | 0.0 | 0.00 | 0.00 | 0.00 | 39 | 1006.5 |
| 20260505195558 | 64 | 163 | 2.0 | 2.0 | 0.00 | 0.00 | 0.00 | 39 | 1006.5 |
| 20260505195058 | 64 | 163 | 1.0 | 2.0 | 0.00 | 0.00 | 0.00 | 40 | 1006.7 |
| 20260505194558 | 64 | 176 | 2.0 | 2.0 | 0.00 | 0.00 | 0.00 | 38 | 1006.3 |
| 20260505194058 | 64 | 176 | 0.0 | 4.0 | 0.00 | 0.00 | 0.00 | 37 | 1006.3 |
| 20260505193558 | 66 | 176 | 0.0 | 0.0 | 0.00 | 0.00 | 0.00 | 36 | 1006.3 |
| 20260505193058 | 66 | 176 | 1.0 | 5.0 | 0.00 | 0.00 | 0.00 | 36 | 1006.2 |
| 20260505192558 | 66 | 133 | 3.0 | 4.0 | 0.00 | 0.00 | 0.00 | 36 | 1006.4 |
| 20260505192058 | 66 | 133 | 1.0 | 4.0 | 0.00 | 0.00 | 0.00 | 35 | 1006.5 |
| 20260505191558 | 66 | 132 | 2.0 | 4.0 | 0.00 | 0.00 | 0.00 | 35 | 1006.2 |
| 20260505191058 | 66 | 133 | 1.0 | 2.0 | 0.00 | 0.00 | 0.00 | 34 | 1006.2 |
| 20260505190558 | 66 | 133 | 3.0 | 5.0 | 0.00 | 0.00 | 0.00 | 33 | 1006.2 |
| 20260505190058 | 68 | 149 | 2.0 | 4.0 | 0.00 | 0.00 | 0.00 | 33 | 1006.1 |
| 20260505185558 | 68 | 149 | 2.0 | 4.0 | 0.00 | 0.00 | 0.00 | 32 | 1006.0 |
| 20260505185058 | 68 | 149 | 1.0 | 5.0 | 0.00 | 0.00 | 0.00 | 31 | 1005.9 |
| 20260505184558 | 68 | 184 | 2.0 | 4.0 | 0.00 | 0.00 | 0.00 | 31 | 1005.9 |
| 20260505184058 | 68 | 166 | 2.0 | 4.0 | 0.00 | 0.00 | 0.00 | 30 | 1005.9 |
| 20260505183558 | 70 | 212 | 2.0 | 5.0 | 0.00 | 0.00 | 0.00 | 30 | 1005.9 |
| 20260505183058 | 70 | 213 | 4.0 | 4.0 | 0.00 | 0.00 | 0.00 | 29 | 1005.8 |
| 20260505182558 | 70 | 212 | 5.0 | 5.0 | 0.00 | 0.00 | 0.00 | 29 | 1005.8 |
| 20260505182058 | 70 | 214 | 2.0 | 4.0 | 0.00 | 0.00 | 0.00 | 29 | 1005.7 |
| 20260505181558 | 70 | 214 | 2.0 | 5.0 | 0.00 | 0.00 | 0.00 | 29 | 1005.7 |
| 20260505181058 | 72 | 214 | 5.0 | 7.0 | 0.00 | 0.00 | 0.00 | 28 | 1005.6 |
| 20260505180558 | 72 | 185 | 6.0 | 7.0 | 0.00 | 0.00 | 0.00 | 28 | 1005.5 |
| 20260505180058 | 72 | 192 | 4.0 | 9.0 | 0.00 | 0.00 | 0.00 | 27 | 1005.5 |
| 20260505175558 | 72 | 211 | 4.0 | 5.0 | 0.00 | 0.00 | 0.00 | 27 | 1005.6 |
| 20260505175058 | 72 | 211 | 5.0 | 9.0 | 0.00 | 0.00 | 0.00 | 26 | 1005.5 |
| 20260505174558 | 73 | 185 | 7.0 | 11.0 | 0.00 | 0.00 | 0.00 | 26 | 1005.4 |
| 20260505174058 | 73 | 205 | 8.0 | 11.0 | 0.00 | 0.00 | 0.00 | 26 | 1005.3 |
| 20260505173558 | 73 | 209 | 6.0 | 9.0 | 0.00 | 0.00 | 0.00 | 25 | 1005.4 |
| 20260505173058 | 73 | 208 | 9.0 | 11.0 | 0.00 | 0.00 | 0.00 | 25 | 1005.1 |
| 20260505172558 | 73 | 197 | 9.0 | 13.0 | 0.00 | 0.00 | 0.00 | 25 | 1005.2 |
| 20260505172058 | 75 | 201 | 11.0 | 22.0 | 0.00 | 0.00 | 0.00 | 24 | 1005.0 |
| 20260505171558 | 75 | 196 | 8.0 | 13.0 | 0.00 | 0.00 | 0.00 | 24 | 1005.0 |
| 20260505171058 | 75 | 203 | 14.0 | 17.0 | 0.00 | 0.00 | 0.00 | 23 | 1005.0 |
| 20260505170558 | 75 | 208 | 13.0 | 28.0 | 0.00 | 0.00 | 0.00 | 23 | 1005.0 |
| 20260505170058 | 75 | 218 | 9.0 | 15.0 | 0.00 | 0.00 | 0.00 | 23 | 1004.9 |
| 20260505165558 | 75 | 202 | 13.0 | 17.0 | 0.00 | 0.00 | 0.00 | 23 | 1004.9 |
| 20260505165058 | 75 | 230 | 6.0 | 15.0 | 0.00 | 0.00 | 0.00 | 23 | 1005.1 |
| 20260505164558 | 77 | 231 | 12.0 | 20.0 | 0.00 | 0.00 | 0.00 | 23 | 1005.1 |
| 20260505164058 | 77 | 205 | 16.0 | 26.0 | 0.00 | 0.00 | 0.00 | 22 | 1005.2 |
| 20260505163558 | 77 | 176 | 9.0 | 17.0 | 0.00 | 0.00 | 0.00 | 22 | 1004.9 |
| 20260505163058 | 77 | 199 | 8.0 | 17.0 | 0.00 | 0.00 | 0.00 | 22 | 1004.9 |
| 20260505162558 | 77 | 205 | 12.0 | 17.0 | 0.00 | 0.00 | 0.00 | 21 | 1004.9 |
| 20260505162058 | 77 | 216 | 17.0 | 22.0 | 0.00 | 0.00 | 0.00 | 20 | 1004.8 |